Date String (YYYY-MM-DD hh:mm:ss) UTC,Instrument flags,Ambient pressure (hPa),Sample flow (lpm),Bypass flow (lpm),Sample temperature (°C),Ambient temperature (°C),ASC tube jacket temperature (°C),LED temperature (°C),Box temperature (°C),Sample RH (%),Span deviation,Mass concentration (μg/m³),Mass concentration (μg/m³),Mass concentration (μg/m³)
DateTimeUTC,F1_M11,P_M11,Q1_M11,Q2_M11,T1_M11,T2_M11,T3_M11,T4_M11,T5_M11,U1_M11,ZSPAN_M11,X0_M11,X2_M11,X1_M11
2022-06-17 12:00:00,,0828.3,5.00,0.00,29.6,27.4,00.0,38.5,31.3,33.6,0000.0,0017.12,0007.97,0005.20
2022-06-17 12:01:00,,0828.2,5.00,0.00,29.6,27.5,00.0,38.5,31.3,33.7,0000.0,0016.94,0007.93,0005.19
2022-06-17 12:02:00,,0828.2,5.01,0.00,29.5,27.6,00.0,38.5,31.3,33.7,0000.0,0016.81,0007.96,0005.22
2022-06-17 12:03:00,,0828.3,4.98,0.00,29.5,27.8,00.0,38.4,31.3,33.8,0000.0,0016.67,0007.87,0005.22
2022-06-17 12:04:00,,0828.3,5.01,0.00,29.5,27.9,00.0,38.4,31.4,33.9,0000.0,0016.75,0007.88,0005.23
2022-06-17 12:05:00,,0828.3,4.99,0.00,29.5,28.0,00.0,38.4,31.4,33.9,0000.0,0016.55,0007.85,0005.22
2022-06-17 12:06:00,,0828.3,4.99,0.00,29.5,28.1,00.0,38.4,31.4,33.9,0000.0,0016.63,0007.85,0005.22
2022-06-17 12:07:00,,0828.3,5.00,0.00,29.5,28.3,00.0,38.4,31.4,34.0,0000.0,0017.08,0007.85,0005.23
2022-06-17 12:08:00,,0828.3,5.00,0.00,29.6,28.3,00.0,38.4,31.5,34.0,0000.1,0017.35,0007.89,0005.23
2022-06-17 12:09:00,,0828.3,5.01,0.00,29.6,28.4,00.0,38.4,31.5,34.0,0000.1,0017.46,0007.86,0005.22
2022-06-17 12:10:00,,0828.3,5.01,0.00,29.6,28.5,00.0,38.4,31.5,34.0,0000.7,0017.54,0007.86,0005.21
2022-06-17 12:11:00,,0828.3,5.01,0.00,29.6,28.6,00.0,38.5,31.6,34.0,0001.2,0017.71,0007.82,0005.22
2022-06-17 12:12:00,,0828.3,4.99,0.00,29.6,28.6,00.0,38.5,31.6,34.0,0001.3,0018.37,0007.96,0005.25
2022-06-17 12:13:00,,0828.3,4.99,0.00,29.7,28.7,00.0,38.5,31.6,34.0,0000.9,0018.43,0007.98,0005.25
2022-06-17 12:14:00,,0828.3,5.01,0.00,29.7,28.7,00.0,38.5,31.6,33.9,0000.4,0018.20,0007.96,0005.25
2022-06-17 12:15:00,,0828.3,5.01,0.00,29.7,28.8,00.0,38.5,31.7,33.9,-000.6,0018.17,0008.00,0005.27
2022-06-17 12:16:00,,0828.3,5.00,0.00,29.7,28.8,00.0,38.5,31.7,33.9,-001.6,0018.25,0007.96,0005.28
2022-06-17 12:17:00,,0828.3,4.99,0.00,29.7,28.8,00.0,38.5,31.7,34.0,-000.9,0018.24,0007.95,0005.30
2022-06-17 12:18:00,,0828.3,5.00,0.00,29.8,28.9,00.0,38.6,31.7,34.0,-000.6,0017.58,0007.94,0005.31
2022-06-17 12:19:00,,0828.3,5.01,0.00,29.8,28.9,00.0,38.6,31.8,34.1,-000.2,0017.36,0007.91,0005.31
2022-06-17 12:20:00,,0828.3,4.99,0.00,29.8,28.9,00.0,38.6,31.7,34.1,-000.3,0017.46,0007.97,0005.32
2022-06-17 12:21:00,,0828.5,4.99,0.00,29.8,29.0,00.0,38.6,31.8,34.1,-000.1,0017.61,0007.98,0005.32
2022-06-17 12:22:00,,0828.3,5.01,0.00,29.9,29.0,00.0,38.6,31.8,34.1,-000.2,0017.82,0008.02,0005.32
2022-06-17 12:23:00,,0828.4,4.99,0.00,29.9,28.9,00.0,38.6,31.8,34.1,0000.2,0017.57,0008.03,0005.32
2022-06-17 12:24:00,,0828.4,4.99,0.00,29.9,28.2,00.0,38.6,31.7,34.2,0000.2,0017.70,0008.05,0005.32
2022-06-17 12:25:00,,0828.4,5.01,0.00,29.8,27.7,00.0,38.5,31.5,34.4,0000.7,0017.78,0008.06,0005.31
2022-06-17 12:26:00,,0828.4,5.00,0.00,29.7,27.6,00.0,38.5,31.5,34.6,0000.7,0017.61,0007.98,0005.30
2022-06-17 12:27:00,,0828.4,5.00,0.00,29.7,27.6,00.0,38.5,31.4,34.8,0001.0,0017.62,0008.02,0005.31
2022-06-17 12:28:00,,0828.4,4.99,0.00,29.7,27.7,00.0,38.5,31.4,35.0,0001.2,0017.34,0008.03,0005.31
2022-06-17 12:29:00,,0828.3,5.01,0.00,29.7,27.9,00.0,38.5,31.5,35.1,0001.1,0017.38,0008.03,0005.30
2022-06-17 12:30:00,,0828.5,4.99,0.00,29.9,28.0,00.0,38.5,31.7,34.7,0001.4,0017.41,0008.05,0005.29
2022-06-17 12:31:00,,0828.5,5.00,0.00,30.1,28.1,00.0,38.5,31.7,34.4,0001.6,0017.05,0008.00,0005.27
2022-06-17 12:32:00,,0828.4,5.00,0.00,30.2,28.3,00.0,38.5,31.7,34.4,0001.7,0017.09,0007.95,0005.27
2022-06-17 12:33:00,,0828.4,5.00,0.00,30.2,28.4,00.0,38.6,31.7,34.4,0001.7,0016.69,0007.94,0005.26
2022-06-17 12:34:00,,0828.4,5.00,0.00,30.3,28.5,00.0,38.6,31.7,34.4,0001.3,0016.66,0007.88,0005.25
2022-06-17 12:35:00,,0828.5,5.01,0.00,30.3,28.6,00.0,38.7,31.7,34.5,0000.8,0016.44,0007.80,0005.24
2022-06-17 12:36:00,,0828.4,4.99,0.00,30.3,28.6,00.0,38.7,31.7,34.6,0000.2,0016.30,0007.76,0005.23
2022-06-17 12:37:00,,0828.4,5.01,0.00,30.3,28.7,00.0,38.8,31.8,34.7,0000.7,0016.51,0007.81,0005.22
2022-06-17 12:38:00,,0828.4,5.01,0.00,30.3,28.8,00.0,38.8,31.8,34.8,0001.1,0016.77,0007.84,0005.22
2022-06-17 12:39:00,,0828.4,5.00,0.00,30.3,28.8,00.0,38.8,31.9,34.8,0001.0,0016.80,0007.82,0005.21
2022-06-17 12:40:00,,0828.4,5.00,0.00,30.4,28.9,00.0,38.9,31.9,34.9,0001.4,0017.42,0007.77,0005.19
2022-06-17 12:41:00,,0828.4,5.00,0.00,30.4,28.9,00.0,38.9,31.9,34.9,0001.6,0017.47,0007.75,0005.20
2022-06-17 12:42:00,,0828.5,5.00,0.00,30.4,29.0,00.0,38.9,31.9,34.9,0001.8,0017.35,0007.71,0005.21
2022-06-17 12:43:00,,0828.5,5.00,0.00,30.4,29.0,00.0,38.9,32.0,34.9,0002.0,0017.15,0007.69,0005.21
2022-06-17 12:44:00,,0828.5,5.00,0.00,30.4,29.1,00.0,38.9,32.0,34.9,0000.9,0016.98,0007.68,0005.21
2022-06-17 12:45:00,,0828.5,5.01,0.00,30.4,28.6,00.0,38.9,31.9,35.0,0000.0,0016.74,0007.68,0005.21
2022-06-17 12:46:00,,0828.5,4.99,0.00,30.4,27.7,00.0,38.9,31.7,35.1,0000.0,0016.65,0007.69,0005.21
2022-06-17 12:47:00,,0828.5,5.01,0.00,30.6,27.3,00.0,38.8,31.7,34.7,0000.0,0016.61,0007.65,0005.20
2022-06-17 12:48:00,,0828.4,4.98,0.00,30.6,27.2,00.0,38.8,31.7,34.6,0000.0,0016.61,0007.66,0005.19
2022-06-17 12:49:00,,0828.5,5.01,0.00,30.6,27.3,00.0,38.8,31.6,34.6,0000.0,0016.53,0007.62,0005.18
2022-06-17 12:50:00,,0828.5,4.99,0.00,30.6,27.4,00.0,38.8,31.6,34.7,0000.0,0016.70,0007.60,0005.18
2022-06-17 12:51:00,,0828.5,5.01,0.00,30.6,27.6,00.0,38.9,31.6,34.7,0000.0,0015.83,0007.57,0005.17
2022-06-17 12:52:00,,0828.5,5.00,0.00,30.6,27.8,00.0,38.9,31.6,34.8,0000.0,0015.58,0007.52,0005.16
2022-06-17 12:53:00,,0828.5,5.00,0.00,30.6,27.9,00.0,38.9,31.7,34.9,0000.0,0016.33,0007.57,0005.16
2022-06-17 12:54:00,,0828.5,4.99,0.00,30.6,28.1,00.0,39.0,31.7,35.0,0000.0,0016.63,0007.57,0005.15
2022-06-17 12:55:00,,0828.5,5.02,0.00,30.6,28.2,00.0,39.0,31.7,35.0,0000.0,0016.57,0007.56,0005.14
2022-06-17 12:56:00,,0828.8,4.99,0.00,30.8,28.3,00.0,39.0,31.9,34.7,0000.0,0016.67,0007.61,0005.13
2022-06-17 12:57:00,,0829.0,5.00,0.00,30.9,28.4,00.0,39.0,31.9,34.5,0000.0,0016.86,0007.57,0005.12
2022-06-17 12:58:00,,0828.9,5.00,0.00,30.9,28.5,00.0,39.0,31.9,34.5,0000.0,0016.98,0007.66,0005.13
2022-06-17 12:59:00,,0829.1,4.99,0.00,30.9,28.6,00.0,39.1,31.9,34.6,0000.2,0017.03,0007.69,0005.13
